Location: Newark
(53.2933°N, 6.3959°W)
Time: 12:49:46
(UTC+00:00)

Envisat - Pass Details

Date: 20 February 2020
Orbit: 764 x 766 km, 98.1° (Epoch: 04 April)

Event Time Altitude Azimuth Distance (km) Brightness Sun altitude
Rises 19:45:30 0° 221° (SW) 3,227 6.7 -18.6°
Reaches altitude 10° 19:49:06 10° 247° (WSW) 2,307 6.4 -19.1°
Maximum altitude 19:51:31 13° 276° (W) 2,083 6.4 -19.5°
Drops below altitude 10° 19:53:58 10° 305° (NW) 2,315 6.4 -19.8°
Sets 19:57:36 0° 332° (NNW) 3,248 6.8 -20.4°
